Time,TemperatureF,DewpointF,PressureIn,WindDirection,WindDirectionDegrees,WindSpeedMPH,WindSpeedGustMPH,Humidity,HourlyPrecipIn,Conditions,Clouds,dailyrainin,SoftwareType,DateUTC
2013-12-03 00:00:00,44.8,39.6,29.65,NNW,341,0.0,5.0,82,0.00,,,0.01,Wunderground v.1.15,2013-12-03 06:00:00,
2013-12-03 00:10:00,45.4,40.2,29.65,NNW,341,0.0,5.0,82,0.00,,,0.01,Wunderground v.1.15,2013-12-03 06:10:00,
2013-12-03 00:20:00,44.8,39.3,29.65,NNW,341,0.0,5.0,81,0.00,,,0.00,Wunderground v.1.15,2013-12-03 06:20:00,
2013-12-03 00:30:00,44.0,39.5,29.65,NNW,341,0.0,5.0,84,0.00,,,0.00,Wunderground v.1.15,2013-12-03 06:30:00,
2013-12-03 00:40:00,43.5,39.3,29.65,NNW,341,0.0,5.0,85,0.00,,,0.00,Wunderground v.1.15,2013-12-03 06:40:00,
2013-12-03 00:50:00,43.0,38.8,29.65,NNW,341,0.0,5.0,85,0.00,,,0.00,Wunderground v.1.15,2013-12-03 06:50:00,
2013-12-03 01:01:00,42.3,38.1,29.65,NNW,341,0.0,5.0,85,0.00,,,0.00,Wunderground v.1.15,2013-12-03 07:01:00,
2013-12-03 01:10:00,41.9,38.3,29.64,NNW,341,0.0,5.0,87,0.00,,,0.00,Wunderground v.1.15,2013-12-03 07:10:00,
2013-12-03 01:20:00,41.6,38.3,29.64,NNW,341,0.0,5.0,88,0.00,,,0.00,Wunderground v.1.15,2013-12-03 07:20:00,
2013-12-03 01:30:00,41.3,38.0,29.63,NNW,341,0.0,5.0,88,0.00,,,0.00,Wunderground v.1.15,2013-12-03 07:30:00,
2013-12-03 01:40:00,41.4,38.4,29.63,NNW,341,0.0,5.0,89,0.00,,,0.00,Wunderground v.1.15,2013-12-03 07:40:00,
2013-12-03 01:50:00,41.4,38.4,29.63,NNW,341,0.0,5.0,89,0.00,,,0.00,Wunderground v.1.15,2013-12-03 07:50:00,
2013-12-03 02:00:00,41.8,39.4,29.63,NNW,341,0.0,5.0,91,0.00,,,0.00,Wunderground v.1.15,2013-12-03 08:00:00,
2013-12-03 02:10:00,42.0,38.7,29.63,NNW,341,0.0,5.0,88,0.00,,,0.00,Wunderground v.1.15,2013-12-03 08:10:00,
2013-12-03 02:20:00,41.8,39.1,29.62,NNW,341,0.0,5.0,90,0.00,,,0.00,Wunderground v.1.15,2013-12-03 08:20:00,
2013-12-03 02:30:00,42.2,39.5,29.62,NNW,341,0.0,5.0,90,0.00,,,0.00,Wunderground v.1.15,2013-12-03 08:30:00,
2013-12-03 02:40:00,41.9,38.9,29.62,NNW,341,0.0,5.0,89,0.00,,,0.00,Wunderground v.1.15,2013-12-03 08:40:00,
2013-12-03 02:50:00,41.1,37.5,29.62,NNW,341,0.0,5.0,87,0.00,,,0.00,Wunderground v.1.15,2013-12-03 08:50:00,
2013-12-03 03:00:00,40.2,36.6,29.62,NNW,341,0.0,5.0,87,0.00,,,0.00,Wunderground v.1.15,2013-12-03 09:00:00,
2013-12-03 03:10:00,39.6,36.6,29.62,NNW,341,0.0,5.0,89,0.00,,,0.00,Wunderground v.1.15,2013-12-03 09:10:00,
2013-12-03 03:20:00,40.1,38.0,29.62,NNW,341,0.0,5.0,92,0.00,,,0.00,Wunderground v.1.15,2013-12-03 09:20:00,
2013-12-03 03:30:00,40.6,38.5,29.61,NNW,341,0.0,5.0,92,0.00,,,0.00,Wunderground v.1.15,2013-12-03 09:30:00,
2013-12-03 03:40:00,40.6,38.2,29.61,NNW,341,0.0,5.0,91,0.00,,,0.00,Wunderground v.1.15,2013-12-03 09:40:00,
2013-12-03 03:50:00,40.2,37.5,29.61,NNW,341,0.0,5.0,90,0.00,,,0.00,Wunderground v.1.15,2013-12-03 09:50:00,
2013-12-03 04:00:00,39.8,37.1,29.61,NNW,341,0.0,5.0,90,0.00,,,0.00,Wunderground v.1.15,2013-12-03 10:00:00,
2013-12-03 04:10:00,39.3,36.6,29.61,NNW,341,0.0,5.0,90,0.00,,,0.00,Wunderground v.1.15,2013-12-03 10:10:00,
2013-12-03 04:20:00,38.8,36.1,29.60,NNW,341,0.0,5.0,90,0.00,,,0.00,Wunderground v.1.15,2013-12-03 10:20:00,
2013-12-03 04:30:00,38.6,36.5,29.60,NNW,341,1.0,1.0,92,0.00,,,0.00,Wunderground v.1.15,2013-12-03 10:30:00,
2013-12-03 04:40:00,39.4,37.3,29.61,NNW,341,0.0,5.0,92,0.00,,,0.00,Wunderground v.1.15,2013-12-03 10:40:00,
2013-12-03 04:50:00,39.9,37.8,29.61,NNW,341,0.0,5.0,92,0.00,,,0.00,Wunderground v.1.15,2013-12-03 10:50:00,
2013-12-03 05:00:00,40.1,37.7,29.61,NNW,341,0.0,5.0,91,0.00,,,0.00,Wunderground v.1.15,2013-12-03 11:00:00,
2013-12-03 05:10:00,39.8,37.1,29.61,NNW,341,0.0,5.0,90,0.00,,,0.00,Wunderground v.1.15,2013-12-03 11:10:00,
2013-12-03 05:20:00,40.9,37.0,29.61,NNW,341,0.0,5.0,86,0.00,,,0.00,Wunderground v.1.15,2013-12-03 11:20:00,
2013-12-03 05:30:00,41.4,37.2,29.61,NNW,341,0.0,5.0,85,0.00,,,0.00,Wunderground v.1.15,2013-12-03 11:30:00,
2013-12-03 05:40:00,41.3,37.1,29.61,NNW,341,0.0,5.0,85,0.00,,,0.00,Wunderground v.1.15,2013-12-03 11:40:00,
2013-12-03 05:50:00,40.8,36.3,29.61,NNW,341,0.0,5.0,84,0.00,,,0.00,Wunderground v.1.15,2013-12-03 11:50:00,
2013-12-03 06:00:00,40.4,36.5,29.61,NNW,341,0.0,5.0,86,0.00,,,0.00,Wunderground v.1.15,2013-12-03 12:00:00,
2013-12-03 06:10:00,40.2,36.6,29.61,NNW,341,0.0,5.0,87,0.00,,,0.00,Wunderground v.1.15,2013-12-03 12:10:00,
2013-12-03 06:20:00,40.5,36.3,29.61,NNW,341,0.0,5.0,85,0.00,,,0.00,Wunderground v.1.15,2013-12-03 12:20:00,
2013-12-03 06:30:00,41.7,36.0,29.62,NNW,341,0.0,5.0,80,0.00,,,0.00,Wunderground v.1.15,2013-12-03 12:30:00,
2013-12-03 06:40:00,41.9,36.2,29.62,NNW,341,0.0,5.0,80,0.00,,,0.00,Wunderground v.1.15,2013-12-03 12:40:00,
2013-12-03 06:50:00,41.5,35.8,29.63,NNW,341,0.0,5.0,80,0.00,,,0.00,Wunderground v.1.15,2013-12-03 12:50:00,
2013-12-03 07:00:00,41.2,35.5,29.62,NNW,341,0.0,5.0,80,0.00,,,0.00,Wunderground v.1.15,2013-12-03 13:00:00,
2013-12-03 07:10:00,40.5,35.7,29.63,NNW,341,0.0,5.0,83,0.00,,,0.00,Wunderground v.1.15,2013-12-03 13:10:00,
2013-12-03 07:20:00,40.0,35.6,29.63,NNW,341,0.0,5.0,84,0.00,,,0.00,Wunderground v.1.15,2013-12-03 13:20:00,
2013-12-03 07:30:00,39.7,35.6,29.63,NNW,341,0.0,5.0,85,0.00,,,0.00,Wunderground v.1.15,2013-12-03 13:30:00,
2013-12-03 07:40:00,40.5,35.7,29.64,NNW,341,0.0,5.0,83,0.00,,,0.00,Wunderground v.1.15,2013-12-03 13:40:00,
2013-12-03 07:50:00,42.8,37.7,29.63,NNW,341,0.0,5.0,82,0.00,,,0.00,Wunderground v.1.15,2013-12-03 13:50:00,
2013-12-03 08:00:00,44.3,39.2,29.64,NNW,344,0.0,5.0,82,0.00,,,0.00,Wunderground v.1.15,2013-12-03 14:00:00,
2013-12-03 08:10:00,46.6,39.8,29.63,NNW,344,0.0,5.0,77,0.00,,,0.00,Wunderground v.1.15,2013-12-03 14:10:00,
2013-12-03 08:20:00,49.0,39.3,29.64,NNW,344,0.0,5.0,69,0.00,,,0.00,Wunderground v.1.15,2013-12-03 14:20:00,
2013-12-03 08:30:00,50.8,39.5,29.64,NNW,344,0.0,5.0,65,0.00,,,0.00,Wunderground v.1.15,2013-12-03 14:30:00,
2013-12-03 08:40:00,52.8,37.1,29.64,NNW,344,0.0,5.0,55,0.00,,,0.00,Wunderground v.1.15,2013-12-03 14:40:00,
2013-12-03 08:50:00,54.5,36.7,29.65,NNW,343,0.0,5.0,51,0.00,,,0.00,Wunderground v.1.15,2013-12-03 14:50:00,
2013-12-03 09:00:00,55.7,36.8,29.64,NNW,342,1.0,1.0,49,0.00,,,0.00,Wunderground v.1.15,2013-12-03 15:00:00,
2013-12-03 09:10:00,57.3,38.3,29.65,NNW,340,0.0,5.0,49,0.00,,,0.00,Wunderground v.1.15,2013-12-03 15:10:00,
2013-12-03 09:20:00,58.9,37.6,29.65,NNW,346,2.0,2.0,45,0.00,,,0.00,Wunderground v.1.15,2013-12-03 15:20:00,
2013-12-03 09:30:00,60.4,37.8,29.66,WNW,297,0.0,5.0,43,0.00,,,0.00,Wunderground v.1.15,2013-12-03 15:30:00,
2013-12-03 09:40:00,62.1,38.1,29.66,West,274,2.0,9.0,41,0.00,,,0.00,Wunderground v.1.15,2013-12-03 15:40:00,
2013-12-03 09:50:00,63.7,36.9,29.66,WSW,255,2.0,2.0,37,0.00,,,0.00,Wunderground v.1.15,2013-12-03 15:50:00,
2013-12-03 10:00:00,64.8,36.5,29.67,West,277,2.0,6.0,35,0.00,,,0.00,Wunderground v.1.15,2013-12-03 16:00:00,
2013-12-03 10:10:00,65.7,35.8,29.67,West,267,3.0,8.0,33,0.00,,,0.00,Wunderground v.1.15,2013-12-03 16:10:00,
2013-12-03 10:20:00,66.2,36.2,29.67,WSW,256,3.0,3.0,33,0.00,,,0.00,Wunderground v.1.15,2013-12-03 16:20:00,
2013-12-03 10:30:00,66.9,36.8,29.67,WNW,286,3.0,3.0,33,0.00,,,0.00,Wunderground v.1.15,2013-12-03 16:30:00,
2013-12-03 10:40:00,67.7,36.8,29.66,WSW,250,2.0,2.0,32,0.00,,,0.00,Wunderground v.1.15,2013-12-03 16:40:00,
2013-12-03 10:50:00,68.4,36.6,29.65,West,268,2.0,2.0,31,0.00,,,0.00,Wunderground v.1.15,2013-12-03 16:50:00,
2013-12-03 11:00:00,69.4,36.6,29.65,WSW,245,2.0,7.0,30,0.00,,,0.00,Wunderground v.1.15,2013-12-03 17:00:00,
2013-12-03 11:10:00,70.7,36.0,29.65,WSW,244,3.0,6.0,28,0.00,,,0.00,Wunderground v.1.15,2013-12-03 17:10:00,
2013-12-03 11:20:00,71.7,35.9,29.64,WNW,291,6.0,6.0,27,0.00,,,0.00,Wunderground v.1.15,2013-12-03 17:20:00,
2013-12-03 11:30:00,72.9,37.9,29.64,SW,214,3.0,3.0,28,0.00,,,0.00,Wunderground v.1.15,2013-12-03 17:30:00,
2013-12-03 11:40:00,73.9,36.8,29.63,WNW,286,4.0,5.0,26,0.00,,,0.00,Wunderground v.1.15,2013-12-03 17:40:00,
2013-12-03 11:50:00,74.6,35.4,29.63,WSW,241,5.0,5.0,24,0.00,,,0.00,Wunderground v.1.15,2013-12-03 17:50:00,
2013-12-03 12:00:00,75.3,34.9,29.62,WSW,248,3.0,5.0,23,0.00,,,0.00,Wunderground v.1.15,2013-12-03 18:00:00,
2013-12-03 12:10:00,76.1,35.6,29.61,SW,234,5.0,5.0,23,0.00,,,0.00,Wunderground v.1.15,2013-12-03 18:10:00,
2013-12-03 12:20:00,77.0,35.2,29.61,West,261,5.0,5.0,22,0.00,,,0.00,Wunderground v.1.15,2013-12-03 18:20:00,
2013-12-03 12:30:00,77.8,35.9,29.60,WNW,298,3.0,6.0,22,0.00,,,0.00,Wunderground v.1.15,2013-12-03 18:30:00,
2013-12-03 12:40:00,78.2,33.8,29.59,West,270,5.0,5.0,20,0.00,,,0.00,Wunderground v.1.15,2013-12-03 18:40:00,
2013-12-03 12:50:00,78.5,36.5,29.59,WSW,258,5.0,5.0,22,0.00,,,0.00,Wunderground v.1.15,2013-12-03 18:50:00,
2013-12-03 13:00:00,79.0,34.5,29.59,WSW,252,5.0,5.0,20,0.00,,,0.00,Wunderground v.1.15,2013-12-03 19:00:00,
2013-12-03 13:10:00,79.3,34.7,29.59,WNW,300,4.0,6.0,20,0.00,,,0.00,Wunderground v.1.15,2013-12-03 19:10:00,
2013-12-03 13:20:00,79.7,35.1,29.58,West,273,5.0,5.0,20,0.00,,,0.00,Wunderground v.1.15,2013-12-03 19:20:00,
2013-12-03 13:30:00,80.2,35.5,29.57,West,273,3.0,5.0,20,0.00,,,0.00,Wunderground v.1.15,2013-12-03 19:30:00,
2013-12-03 13:40:00,81.1,37.5,29.56,SW,232,2.0,2.0,21,0.00,,,0.00,Wunderground v.1.15,2013-12-03 19:40:00,
2013-12-03 13:50:00,81.6,35.3,29.56,WSW,240,3.0,7.0,19,0.00,,,0.00,Wunderground v.1.15,2013-12-03 19:50:00,
2013-12-03 14:00:00,82.2,34.5,29.56,WSW,246,3.0,5.0,18,0.00,,,0.00,Wunderground v.1.15,2013-12-03 20:00:00,
2013-12-03 14:10:00,82.1,35.7,29.56,WSW,242,3.0,3.0,19,0.00,,,0.00,Wunderground v.1.15,2013-12-03 20:10:00,
2013-12-03 14:20:00,82.2,34.5,29.56,SW,236,4.0,4.0,18,0.00,,,0.00,Wunderground v.1.15,2013-12-03 20:20:00,
2013-12-03 14:30:00,82.3,35.9,29.55,South,186,2.0,5.0,19,0.00,,,0.00,Wunderground v.1.15,2013-12-03 20:30:00,
2013-12-03 14:40:00,82.5,34.7,29.55,WSW,251,4.0,4.0,18,0.00,,,0.00,Wunderground v.1.15,2013-12-03 20:40:00,
2013-12-03 14:50:00,82.8,36.3,29.55,SW,232,3.0,3.0,19,0.00,,,0.00,Wunderground v.1.15,2013-12-03 20:50:00,
2013-12-03 15:00:00,82.7,36.2,29.55,SW,234,2.0,2.0,19,0.00,,,0.00,Wunderground v.1.15,2013-12-03 21:00:00,
2013-12-03 15:10:00,82.7,34.9,29.55,SW,232,1.0,5.0,18,0.00,,,0.00,Wunderground v.1.15,2013-12-03 21:10:00,
2013-12-03 15:20:00,82.6,34.8,29.54,WSW,238,2.0,2.0,18,0.00,,,0.00,Wunderground v.1.15,2013-12-03 21:20:00,
2013-12-03 15:30:00,82.1,34.4,29.54,SW,229,3.0,3.0,18,0.00,,,0.00,Wunderground v.1.15,2013-12-03 21:30:00,
2013-12-03 15:40:00,81.4,33.8,29.54,WSW,240,2.0,7.0,18,0.00,,,0.00,Wunderground v.1.15,2013-12-03 21:40:00,
2013-12-03 15:50:00,81.1,34.9,29.55,WSW,239,1.0,5.0,19,0.00,,,0.00,Wunderground v.1.15,2013-12-03 21:50:00,
2013-12-03 16:00:00,81.0,34.8,29.55,WSW,241,1.0,1.0,19,0.00,,,0.00,Wunderground v.1.15,2013-12-03 22:00:00,
2013-12-03 16:10:00,80.7,34.6,29.55,WSW,243,1.0,1.0,19,0.00,,,0.00,Wunderground v.1.15,2013-12-03 22:10:00,
2013-12-03 16:20:00,80.3,36.8,29.55,WSW,244,0.0,5.0,21,0.00,,,0.00,Wunderground v.1.15,2013-12-03 22:20:00,
2013-12-03 16:30:00,78.8,36.7,29.55,WSW,244,0.0,5.0,22,0.00,,,0.00,Wunderground v.1.15,2013-12-03 22:30:00,
2013-12-03 16:40:00,77.0,36.3,29.55,WSW,244,0.0,5.0,23,0.00,,,0.00,Wunderground v.1.15,2013-12-03 22:40:00,
2013-12-03 16:50:00,75.7,37.4,29.55,WSW,244,0.0,5.0,25,0.00,,,0.00,Wunderground v.1.15,2013-12-03 22:50:00,
2013-12-03 17:00:00,74.2,37.1,29.55,WSW,244,0.0,5.0,26,0.00,,,0.00,Wunderground v.1.15,2013-12-03 23:00:00,
2013-12-03 17:10:00,73.0,36.1,29.56,WSW,244,0.0,5.0,26,0.00,,,0.00,Wunderground v.1.15,2013-12-03 23:10:00,
2013-12-03 17:20:00,72.2,39.0,29.56,WSW,244,0.0,5.0,30,0.00,,,0.00,Wunderground v.1.15,2013-12-03 23:20:00,
2013-12-03 17:30:00,70.7,36.0,29.56,WSW,244,0.0,5.0,28,0.00,,,0.00,Wunderground v.1.15,2013-12-03 23:30:00,
2013-12-03 17:40:00,70.1,36.3,29.56,WSW,244,0.0,5.0,29,0.00,,,0.00,Wunderground v.1.15,2013-12-03 23:40:00,
2013-12-03 17:50:00,69.7,36.0,29.57,WSW,244,0.0,5.0,29,0.00,,,0.00,Wunderground v.1.15,2013-12-03 23:50:00,
2013-12-03 18:00:00,69.5,35.8,29.57,WSW,244,0.0,5.0,29,0.00,,,0.00,Wunderground v.1.15,2013-12-04 00:00:00,
2013-12-03 18:10:00,68.0,38.6,29.57,WSW,244,1.0,1.0,34,0.00,,,0.00,Wunderground v.1.15,2013-12-04 00:10:00,
2013-12-03 18:20:00,67.5,38.1,29.57,WSW,244,0.0,5.0,34,0.00,,,0.00,Wunderground v.1.15,2013-12-04 00:20:00,
2013-12-03 18:30:00,67.2,39.3,29.58,WSW,244,0.0,5.0,36,0.00,,,0.00,Wunderground v.1.15,2013-12-04 00:30:00,
2013-12-03 18:40:00,66.7,40.9,29.58,WSW,244,0.0,5.0,39,0.00,,,0.00,Wunderground v.1.15,2013-12-04 00:40:00,
2013-12-03 18:50:00,65.3,40.3,29.58,WSW,244,0.0,5.0,40,0.00,,,0.00,Wunderground v.1.15,2013-12-04 00:50:00,
2013-12-03 19:00:00,64.1,40.5,29.59,WSW,244,0.0,5.0,42,0.00,,,0.00,Wunderground v.1.15,2013-12-04 01:00:00,
2013-12-03 19:10:00,62.8,40.5,29.59,WSW,244,0.0,5.0,44,0.00,,,0.00,Wunderground v.1.15,2013-12-04 01:10:00,
2013-12-03 19:20:00,61.7,40.7,29.59,WSW,244,0.0,5.0,46,0.00,,,0.00,Wunderground v.1.15,2013-12-04 01:20:00,
2013-12-03 19:30:00,60.7,41.4,29.59,WSW,244,0.0,5.0,49,0.00,,,0.00,Wunderground v.1.15,2013-12-04 01:30:00,
2013-12-03 19:40:00,60.2,42.0,29.59,WSW,244,0.0,5.0,51,0.00,,,0.00,Wunderground v.1.15,2013-12-04 01:40:00,
2013-12-03 19:50:00,59.8,42.1,29.59,WSW,244,0.0,5.0,52,0.00,,,0.00,Wunderground v.1.15,2013-12-04 01:50:00,
2013-12-03 20:00:00,59.9,42.7,29.59,WSW,244,0.0,5.0,53,0.00,,,0.00,Wunderground v.1.15,2013-12-04 02:00:00,
2013-12-03 20:10:00,59.5,42.8,29.59,WSW,244,0.0,5.0,54,0.00,,,0.00,Wunderground v.1.15,2013-12-04 02:10:00,
2013-12-03 20:20:00,59.2,42.6,29.59,WSW,244,0.0,5.0,54,0.00,,,0.00,Wunderground v.1.15,2013-12-04 02:20:00,
2013-12-03 20:30:00,58.7,42.6,29.60,WSW,244,0.0,5.0,55,0.00,,,0.00,Wunderground v.1.15,2013-12-04 02:30:00,
2013-12-03 20:40:00,58.4,42.8,29.60,WSW,244,0.0,5.0,56,0.00,,,0.00,Wunderground v.1.15,2013-12-04 02:40:00,
2013-12-03 20:50:00,58.2,42.6,29.60,WSW,244,0.0,5.0,56,0.00,,,0.00,Wunderground v.1.15,2013-12-04 02:50:00,
2013-12-03 21:00:00,58.4,43.2,29.61,WSW,244,0.0,5.0,57,0.00,,,0.00,Wunderground v.1.15,2013-12-04 03:00:00,
2013-12-03 21:10:00,57.9,42.3,29.61,WSW,244,0.0,5.0,56,0.00,,,0.00,Wunderground v.1.15,2013-12-04 03:10:00,
2013-12-03 21:20:00,58.0,42.4,29.61,WSW,244,0.0,5.0,56,0.00,,,0.00,Wunderground v.1.15,2013-12-04 03:20:00,
2013-12-03 21:30:00,57.8,43.6,29.61,WSW,244,0.0,5.0,59,0.00,,,0.00,Wunderground v.1.15,2013-12-04 03:30:00,
2013-12-03 21:40:00,56.9,42.3,29.61,WSW,244,0.0,5.0,58,0.00,,,0.00,Wunderground v.1.15,2013-12-04 03:40:00,
2013-12-03 21:50:00,56.3,42.1,29.61,WSW,244,0.0,5.0,59,0.00,,,0.00,Wunderground v.1.15,2013-12-04 03:50:00,
2013-12-03 22:00:00,55.6,42.4,29.61,WSW,244,0.0,5.0,61,0.00,,,0.00,Wunderground v.1.15,2013-12-04 04:00:00,
2013-12-03 22:10:00,55.5,42.3,29.61,WSW,244,0.0,5.0,61,0.00,,,0.00,Wunderground v.1.15,2013-12-04 04:10:00,
2013-12-03 22:20:00,55.9,42.2,29.61,WSW,244,0.0,5.0,60,0.00,,,0.00,Wunderground v.1.15,2013-12-04 04:20:00,
2013-12-03 22:30:00,56.2,42.1,29.61,WSW,244,0.0,5.0,59,0.00,,,0.00,Wunderground v.1.15,2013-12-04 04:30:00,
2013-12-03 22:40:00,56.5,43.2,29.61,WSW,244,0.0,5.0,61,0.00,,,0.00,Wunderground v.1.15,2013-12-04 04:40:00,
2013-12-03 22:50:00,56.2,42.1,29.62,WSW,244,0.0,5.0,59,0.00,,,0.00,Wunderground v.1.15,2013-12-04 04:50:00,
2013-12-03 23:00:00,56.1,42.0,29.62,WSW,244,0.0,5.0,59,0.00,,,0.00,Wunderground v.1.15,2013-12-04 05:00:00,
2013-12-03 23:10:00,56.6,42.0,29.62,WSW,244,0.0,5.0,58,0.00,,,0.00,Wunderground v.1.15,2013-12-04 05:10:00,
2013-12-03 23:20:00,57.0,41.9,29.62,WSW,244,0.0,5.0,57,0.00,,,0.00,Wunderground v.1.15,2013-12-04 05:20:00,
2013-12-03 23:30:00,57.1,42.0,29.61,WSW,244,0.0,5.0,57,0.00,,,0.00,Wunderground v.1.15,2013-12-04 05:30:00,
2013-12-03 23:40:00,57.5,41.9,29.61,WSW,244,0.0,5.0,56,0.00,,,0.00,Wunderground v.1.15,2013-12-04 05:40:00,
2013-12-03 23:50:00,57.6,42.0,29.61,WSW,244,0.0,5.0,56,0.00,,,0.00,Wunderground v.1.15,2013-12-04 05:50:00,